• In Czech Republic
  • List of Countries
  • For 7 days
  • Water Temperature
  • Satellite Maps
  • Weather Map
  • Weather Widgets
  • user-avatar
    Login

    Hourly Weather Córdoba

    Today, 28 May, Monday

    Time Temperature Precipitation Wind Pressure Humidity
    00:00 +18°C° 0 mm 3 mps 721 mmHg 91%
    01:00 +18°C° 0 mm 3 mps 720 mmHg 91%
    02:00 +18°C° 0 mm 3 mps 720 mmHg 91%
    03:00 +18°C° 0 mm 3 mps 720 mmHg 92%
    04:00 +18°C° 0 mm 3 mps 720 mmHg 92%
    05:00 +18°C° 0 mm 3 mps 719 mmHg 92%
    06:00 +19°C° 0 mm 3 mps 719 mmHg 91%
    07:00 +19°C° 0 mm 3 mps 720 mmHg 89%
    08:00 +19°C° 0 mm 3 mps 720 mmHg 88%
    09:00 +22°C° 0 mm 5 mps 720 mmHg 77%
    10:00 +24°C° 0 mm 7 mps 720 mmHg 67%
    11:00 +27°C° 0 mm 8 mps 721 mmHg 56%
    12:00 +28°C° 0 mm 8 mps 720 mmHg 54%
    13:00 +28°C° 0 mm 7 mps 720 mmHg 52%
    14:00 +29°C° 0 mm 7 mps 719 mmHg 51%
    15:00 +28°C° 0 mm 6 mps 719 mmHg 54%
    16:00 +27°C° 0 mm 5 mps 719 mmHg 57%
    17:00 +27°C° 0 mm 4 mps 719 mmHg 60%
    18:00 +26°C° 0 mm 3 mps 719 mmHg 63%
    19:00 +25°C° 0 mm 3 mps 720 mmHg 66%
    20:00 +24°C° 0 mm 2 mps 720 mmHg 68%
    21:00 +24°C° 0 mm 2 mps 720 mmHg 69%
    22:00 +24°C° 0 mm 2 mps 720 mmHg 69%
    23:00 +22°C° 0 mm 3 mps 721 mmHg 69%

    Tomorrow, 29 May, Tuesday

    Time Temperature Precipitation Wind Pressure Humidity
    00:00 +22°C° 0 mm 3 mps 721 mmHg 70%
    01:00 +21°C° 0 mm 3 mps 720 mmHg 71%
    02:00 +21°C° 0 mm 3 mps 720 mmHg 71%
    03:00 +20°C° 0 mm 3 mps 720 mmHg 72%
    04:00 +20°C° 0 mm 3 mps 720 mmHg 73%
    05:00 +19°C° 0 mm 3 mps 720 mmHg 74%
    06:00 +19°C° 0 mm 3 mps 720 mmHg 72%
    07:00 +19°C° 0 mm 3 mps 720 mmHg 71%
    08:00 +19°C° 0 mm 3 mps 721 mmHg 70%
    09:00 +21°C° 0 mm 4 mps 721 mmHg 63%
    10:00 +23°C° 0 mm 5 mps 721 mmHg 57%
    11:00 +26°C° 0 mm 5 mps 721 mmHg 51%
    12:00 +27°C° 0 mm 5 mps 721 mmHg 50%
    13:00 +28°C° 0 mm 5 mps 720 mmHg 48%
    14:00 +29°C° 0 mm 5 mps 720 mmHg 46%
    15:00 +28°C° 0 mm 4 mps 720 mmHg 50%
    16:00 +27°C° 0 mm 3 mps 719 mmHg 55%
    17:00 +26°C° 0 mm 3 mps 719 mmHg 59%
    18:00 +25°C° 0.1 mm 2 mps 720 mmHg 63%
    19:00 +23°C° 0.1 mm 2 mps 720 mmHg 68%
    20:00 +21°C° 0.1 mm 2 mps 721 mmHg 72%
    21:00 +21°C° 0.2 mm 2 mps 721 mmHg 74%
    22:00 +21°C° 0.2 mm 2 mps 722 mmHg 76%
    23:00 +21°C° 0.2 mm 2 mps 722 mmHg 78%

    Day after tomorrow, 30 May, Wednesday

    Time Temperature Precipitation Wind Pressure Humidity
    00:00 +20°C° 0.4 mm 3 mps 722 mmHg 82%
    01:00 +20°C° 0.4 mm 4 mps 723 mmHg 86%
    02:00 +19°C° 0.4 mm 4 mps 723 mmHg 90%
    03:00 +17°C° 0.6 mm 5 mps 723 mmHg 88%
    04:00 +16°C° 0.6 mm 6 mps 723 mmHg 86%
    05:00 +15°C° 0.6 mm 7 mps 724 mmHg 84%
    06:00 +15°C° 0.1 mm 7 mps 724 mmHg 81%
    07:00 +14°C° 0.1 mm 7 mps 725 mmHg 77%
    08:00 +12°C° 0.1 mm 7 mps 726 mmHg 74%
    09:00 +12°C° 0 mm 7 mps 726 mmHg 66%
    10:00 +12°C° 0 mm 7 mps 727 mmHg 59%
    11:00 +12°C° 0 mm 7 mps 727 mmHg 51%
    12:00 +13°C° 0.1 mm 6 mps 727 mmHg 49%
    13:00 +13°C° 0.1 mm 6 mps 727 mmHg 47%
    14:00 +13°C° 0.1 mm 6 mps 727 mmHg 45%
    15:00 +13°C° 0 mm 6 mps 727 mmHg 48%
    16:00 +11°C° 0 mm 6 mps 727 mmHg 50%
    17:00 +12°C° 0 mm 5 mps 727 mmHg 53%
    18:00 +10°C° 0 mm 5 mps 728 mmHg 55%
    19:00 +10°C° 0 mm 5 mps 728 mmHg 58%
    20:00 +9°C° 0 mm 5 mps 729 mmHg 60%
    21:00 +10°C° 0 mm 4 mps 729 mmHg 59%
    22:00 +10°C° 0 mm 4 mps 730 mmHg 58%
    23:00 +8°C° 0 mm 4 mps 730 mmHg 57%

    31 May, Thursday

    Time Temperature Precipitation Wind Pressure Humidity
    00:00 +8°C° 0 mm 4 mps 730 mmHg 57%
    01:00 +8°C° 0 mm 4 mps 729 mmHg 56%
    02:00 +9°C° 0 mm 3 mps 729 mmHg 56%
    03:00 +8°C° 0 mm 3 mps 729 mmHg 58%
    04:00 +8°C° 0 mm 3 mps 729 mmHg 60%
    05:00 +8°C° 0 mm 3 mps 729 mmHg 63%
    06:00 +8°C° 0 mm 3 mps 730 mmHg 66%
    07:00 +8°C° 0 mm 3 mps 730 mmHg 68%
    08:00 +8°C° 0 mm 3 mps 730 mmHg 71%
    09:00 +8°C° 0 mm 4 mps 730 mmHg 68%
    10:00 +10°C° 0 mm 4 mps 730 mmHg 65%
    11:00 +11°C° 0 mm 4 mps 731 mmHg 62%
    12:00 +12°C° 0 mm 4 mps 730 mmHg 59%
    13:00 +12°C° 0 mm 3 mps 729 mmHg 55%
    14:00 +13°C° 0 mm 3 mps 728 mmHg 52%
    15:00 +12°C° 0 mm 3 mps 728 mmHg 55%
    16:00 +12°C° 0 mm 3 mps 728 mmHg 58%
    17:00 +11°C° 0 mm 3 mps 728 mmHg 61%
    18:00 +10°C° 0 mm 3 mps 728 mmHg 63%
    19:00 +9°C° 0 mm 2 mps 729 mmHg 66%
    20:00 +9°C° 0 mm 2 mps 729 mmHg 68%
    21:00 +8°C° 0 mm 2 mps 729 mmHg 68%
    22:00 +8°C° 0 mm 2 mps 729 mmHg 68%
    23:00 +8°C° 0 mm 2 mps 730 mmHg 67%

    1 June, Friday

    Time Temperature Precipitation Wind Pressure Humidity
    00:00 +8°C° 0 mm 2 mps 729 mmHg 68%
    01:00 +7°C° 0 mm 2 mps 729 mmHg 69%
    02:00 +7°C° 0 mm 2 mps 729 mmHg 70%
    03:00 +7°C° 0 mm 2 mps 729 mmHg 72%
    04:00 +6°C° 0 mm 2 mps 729 mmHg 74%
    05:00 +5°C° 0 mm 2 mps 729 mmHg 76%
    06:00 +6°C° 0 mm 2 mps 729 mmHg 75%
    07:00 +6°C° 0 mm 2 mps 730 mmHg 75%
    08:00 +6°C° 0 mm 2 mps 730 mmHg 74%
    09:00 +7°C° 0 mm 2 mps 730 mmHg 68%
    10:00 +9°C° 0 mm 2 mps 730 mmHg 62%
    11:00 +10°C° 0 mm 2 mps 730 mmHg 56%
    12:00 +12°C° 0 mm 2 mps 730 mmHg 54%
    13:00 +13°C° 0 mm 2 mps 729 mmHg 52%
    14:00 +13°C° 0 mm 2 mps 728 mmHg 50%
    15:00 +13°C° 0 mm 2 mps 728 mmHg 54%
    16:00 +12°C° 0 mm 2 mps 728 mmHg 57%
    17:00 +10°C° 0 mm 2 mps 728 mmHg 60%
    18:00 +11°C° 0 mm 1 mps 729 mmHg 63%
    19:00 +10°C° 0 mm 1 mps 729 mmHg 67%
    20:00 +9°C° 0 mm 1 mps 730 mmHg 70%
    21:00 +9°C° 0 mm 1 mps 730 mmHg 72%
    22:00 +8°C° 0 mm 1 mps 730 mmHg 74%
    23:00 +8°C° 0 mm 1 mps 730 mmHg 76%

    2 June, Saturday

    Time Temperature Precipitation Wind Pressure Humidity
    00:00 +8°C° 0 mm 1 mps 730 mmHg 78%
    01:00 +6°C° 0 mm 0 mps 730 mmHg 79%
    02:00 +6°C° 0 mm 0 mps 730 mmHg 81%
    03:00 +6°C° 0 mm 0 mps 730 mmHg 83%
    04:00 +5°C° 0 mm 0 mps 730 mmHg 85%
    05:00 +5°C° 0 mm 0 mps 730 mmHg 87%
    06:00 +5°C° 0 mm 0 mps 730 mmHg 86%
    07:00 +6°C° 0 mm 1 mps 731 mmHg 86%
    08:00 +6°C° 0 mm 1 mps 731 mmHg 85%
    09:00 +8°C° 0 mm 1 mps 731 mmHg 79%
    10:00 +8°C° 0 mm 2 mps 731 mmHg 72%
    11:00 +10°C° 0 mm 2 mps 731 mmHg 66%
    12:00 +10°C° 0 mm 2 mps 730 mmHg 64%
    13:00 +12°C° 0 mm 2 mps 730 mmHg 61%
    14:00 +11°C° 0 mm 3 mps 729 mmHg 59%
    15:00 +11°C° 0 mm 3 mps 729 mmHg 62%
    16:00 +10°C° 0 mm 2 mps 729 mmHg 65%
    17:00 +9°C° 0 mm 2 mps 729 mmHg 68%
    18:00 +9°C° 0 mm 2 mps 730 mmHg 70%
    19:00 +9°C° 0 mm 2 mps 730 mmHg 72%
    20:00 +8°C° 0 mm 2 mps 731 mmHg 74%
    21:00 +9°C° 0 mm 1 mps 731 mmHg 75%
    22:00 +9°C° 0 mm 1 mps 731 mmHg 76%
    23:00 +9°C° 0 mm 1 mps 731 mmHg 77%
    Show more